CZ-6A DEB, 60626

Orbit data source: Space-Track

CZ-6A DEB, 60626 is space debris in LEO originally from a launch on Tue, 06 Aug 2024 UTC launched from the Taiyaun Space Center, China (TSC). Debris objects in space refer to the collection of defunct objects orbiting the Earth. Examples of debris include non-operational satellites, rocket bodies, and fragments generated from explosions, collisions, or faulty payload assembly.

Loading next visibility...
Identifier
60626, 2024-140AB
Orbit
LEO
Country
Flag of CNCN / PRC
Related business
Manufacturer
SAST
Mission
Spacecraft
Bus & Motor
Unknown
Mass
Unknown
Launch date (UTC)
2024-08-06 (2 years ago)
Launch vehicle
Unknown
Launch site
Taiyaun Space Center, China (TSC)
Object type
Payload
Rocket body
Debris
Shape & HBR
Unknown shape, 0.2 m
Radar Cross Section
Medium (>0.1 m² and <1 m²)

Expand to show TLE details & history
Last TLE update: 14 hours ago

TLE from 14 hours ago
0 CZ-6A DEB
1 60626U 24140AB  26118.43693977  .00001795  00000-0  16091-3 0  9999
2 60626  89.0146 274.7988 0210617 351.2683   8.4895 14.79789608 92778
Epoch: 2026-04-28T10:29Z
TLE epoch observation values (Epoch: 2026-04-28T10:29:11.596Z)
Latitude
-0.00002°
Longitude
-98.91179°
Altitude
487.18 km
Speed
7.7 km/s
True Right ascension
18h 19m 11s
True Declination
0° 00' 00"
Sunlit
Object was in full shadow at epoch
Visualization orbit readout
Latitude
Unknown
Longitude
Unknown
Altitude
Unknown
Speed
Unknown
Apparent Right ascension
Unknown
Apparent Declination
Unknown
Sunlit
N/A
Visualization observer readout
Local Sidereal Time
07:28:39
Azimuth
Unknown
Elevation
Unknown
Doppler factor
Unknown
Orbital elements
Apogee altitude
774.389 km
Perigee altitude
479.315 km
Semi-major axis
7,004.989 km
Eccentricity
0.02106
Inclination
89.0146°
RAAN
274.7988°
Arg. of periapsis
351.2683°
True anomaly
8.85531°
Mean anomaly
8.4895°
Eccentric anomaly
8.67144°
Mean motion
3.70196 °/min
Orbital period
97.25 mins
BSTAR
0.00016091
Loading maneuver chart data...
Computing Atmospheric mass density...
Loading historical data...
Loading historical data...
Loading historical data...
Loading historical data...
Loading historical data...
Loading historical data...
Loading historical data...

Documentation

Showing up to 5 results
|